Погода в Колково

Россия / Кировская область     58°38′18″N   48°54′18″E
темп.,
°C
ветер,
м/с
пор.,
м/с
влажн.,
%
обл.,
%
осадки,
мм/ч
давл.,
гПа
погр.,
м
23 апреля, пт
пт2300:00+3ююз279749 0.0 1022143
03:00+2ю24965 0.0 102383
06:00+4ю289061 0.0 1024224
09:00+9ю367087 0.0 1024583
12:00+12ю345547 0.0 10241408
15:00+11ююв3564100 0.1 1023460
18:00+10юв27747 0.0 1023241
21:00+7юв267718 0.0 102397
24 апреля, сб
сб2400:00+5юв249127 0.0 102278
03:00+6вюв2894100 0.0 1021218
06:00+6юв41088100 0.1 1020468
09:00+9вюв586799 0.1 1019882
12:00+11вюв5758100 0.0 10161398
15:00+10вюв4766100 0.0 10141332
18:00+7вюв5883100 0.1 10131028
21:00+6в3892100 0.4 10111083
25 апреля, вс
вс2500:00+6вюв4891100 0.2 1008900
03:00+6вюв4993100 0.4 10061034
06:00+5в5995100 0.7 10031102
09:00+5вюв51097100 2.0 10011069
12:00+5вюв51097100 1.8 1000971
15:00+4ю3897100 3.1 1000509
18:00+4ююв3688100 0.2 1000484
21:00+2ю2498100 0.3 1000417
26 апреля, пн
пн2600:00+2юз2599100 0.2 1000275
03:00+1юз3797100 0.6 1001350
06:00+1зюз41197100 1.1 1003485
09:00+1зюз51397100 3.3 1005735
12:00+3зюз51293100 1.3 1007976
15:00+6зюз6117287 1.8 10081356
18:00+5зюз49755 0.0 1009711
21:00+1юз210920 0.0 1010205
27 апреля, вт
вт2700:000юз279441 0.0 1010140
03:00−1ююз249412 0.0 101072
06:00+2ю128394 0.0 1009109
09:00+6юв3463100 0.0 1008680
12:00+4вюв3690100 0.9 1006554
15:00+6в51085100 1.8 10021007
18:00+4ююв359268 3.9 1000418
21:00+2ююз2598100 4.1 1000487